Baton Rouge, LA

3:04 PM CDT on June 27, 2017 (GMT -0500)
Baton Rouge Metro-Ryan

Weather History for KBTR - July, 2013

Change the Weather History Date:

Monday, July 29, 2013

  Actual Average Record
Temperature  
Mean Temperature 84 °F 83 °F  
Max Temperature 94 °F 93 °F 99 °F (1921)
Min Temperature 73 °F 74 °F 65 °F (1994)
Degree Days  
Heating Degree Days 0 0  
Month to date heating degree days 0 0  
Since 1 June heating degree days 0 0  
Since 1 July heating degree days 0 0  
Cooling Degree Days 19 18  
Month to date cooling degree days 473 522  
Year to date cooling degree days 1398 1571  
Since 1 June cooling degree days 975 1006  
Growing Degree Days 33 (Base 50)    
Moisture  
Dew Point 74 °F    
Average Humidity 75    
Maximum Humidity 100    
Minimum Humidity 49    
Precipitation  
Precipitation 0.00 in 0.16 in 2.10 in (1954)
Month to date precipitation 4.65 4.63  
Year to date precipitation 49.30 35.56  
Snow  
Snow 0.00 in - - ()
Month to date snowfall 0.0  
Since 1 June snowfall 0.0  
Since 1 July snowfall 0.0  
Snow Depth 0.00 in    
Sea Level Pressure  
Sea Level Pressure 30.06 in    
Wind  
Wind Speed 2 mph (NW)    
Max Wind Speed 12 mph    
Max Gust Speed 17 mph    
Visibility 10 miles    
Events      
T = Trace of Precipitation, MM = Missing Value Source: NWS Daily Summary

Daily Weather History Graph

Daily Weather History Graph

Search for Another Location

Airport or City:

Trip Planner

Search our weather history database for the weather conditions in past years. The results will help you decide how hot, cold, wet, or windy it might be!

Date:

Astronomy

Jul. 29, 2013 Rise Set
Actual Time 6:20 AM CDT 8:00 PM CDT
Civil Twilight 5:54 AM CDT 8:26 PM CDT
Nautical Twilight 5:23 AM CDT 8:58 PM CDT
Astronomical Twilight 4:49 AM CDT 9:31 PM CDT
Moon No Moon Rise 1:27 PM CDT (7/29)
Length of Visible Light 14h 32m
Length of Day
13h 39m
Waning Gibbous, 50% of the Moon is Illuminated
Jul 29
Waning Gibbous
Jul 29
Last Quarter
Aug 6
New
Aug 14
First Quarter
Aug 20
Full

Hourly Weather History & Observations

Time (CDT) Temp. Heat Index Dew Point Humidity Pressure Visibility Wind Dir Wind Speed Gust Speed Precip Events Conditions
12:53 AM 75.0 °F - 73.9 °F 96% 30.01 in 10.0 mi Calm Calm - N/A   Clear
1:53 AM 75.0 °F - 73.0 °F 94% 30.01 in 10.0 mi Calm Calm - N/A   Clear
2:53 AM 75.0 °F - 73.9 °F 96% 30.01 in 10.0 mi Calm Calm - N/A   Mostly Cloudy
3:53 AM 75.0 °F - 73.0 °F 94% 30.01 in 10.0 mi Calm Calm - N/A   Clear
4:53 AM 73.9 °F - 73.0 °F 97% 30.02 in 10.0 mi Calm Calm - N/A   Clear
5:53 AM 73.0 °F - 72.0 °F 96% 30.04 in 9.0 mi Calm Calm - N/A   Clear
6:53 AM 73.9 °F - 73.0 °F 97% 30.06 in 9.0 mi Calm Calm - N/A   Clear
7:53 AM 79.0 °F - 75.0 °F 88% 30.08 in 10.0 mi Calm Calm - N/A   Clear
8:53 AM 82.9 °F 90.2 °F 75.0 °F 77% 30.09 in 10.0 mi Calm Calm - N/A   Clear
9:53 AM 86.0 °F 93.8 °F 73.9 °F 67% 30.09 in 10.0 mi Calm Calm - N/A   Partly Cloudy
10:53 AM 88.0 °F 95.6 °F 73.0 °F 61% 30.09 in 10.0 mi Variable 4.6 mph - N/A   Scattered Clouds
11:53 AM 90.0 °F 97.9 °F 73.0 °F 57% 30.09 in 10.0 mi SE 3.5 mph - N/A   Scattered Clouds
12:53 PM 91.9 °F 98.4 °F 71.1 °F 50% 30.08 in 10.0 mi ENE 5.8 mph - N/A   Scattered Clouds
1:53 PM 91.0 °F 98.2 °F 72.0 °F 53% 30.07 in 10.0 mi Calm Calm - N/A   Scattered Clouds
2:53 PM 91.9 °F 97.4 °F 70.0 °F 48% 30.06 in 10.0 mi Variable 3.5 mph - N/A   Scattered Clouds
3:53 PM 93.0 °F 100.1 °F 71.1 °F 49% 30.05 in 10.0 mi NNE 4.6 mph - N/A   Scattered Clouds
4:53 PM 91.0 °F 102.9 °F 75.9 °F 61% 30.05 in 10.0 mi West 6.9 mph - N/A   Scattered Clouds
5:53 PM 87.1 °F 96.3 °F 75.0 °F 67% 30.06 in 10.0 mi West 3.5 mph - N/A   Scattered Clouds
6:53 PM 90.0 °F 101.3 °F 75.9 °F 63% 30.06 in 10.0 mi West 5.8 mph - N/A   Partly Cloudy
7:53 PM 86.0 °F 93.8 °F 73.9 °F 67% 30.05 in 10.0 mi NNW 3.5 mph - N/A   Clear
8:53 PM 82.9 °F 90.2 °F 75.0 °F 77% 30.06 in 10.0 mi Calm Calm - N/A   Clear
9:53 PM 80.1 °F 85.4 °F 75.9 °F 87% 30.08 in 9.0 mi Calm Calm - N/A   Partly Cloudy
10:53 PM 80.1 °F 85.8 °F 77.0 °F 90% 30.09 in 7.0 mi Calm Calm - N/A   Scattered Clouds
11:53 PM 80.1 °F 85.8 °F 77.0 °F 90% 30.10 in 7.0 mi Calm Calm - N/A   Partly Cloudy